Starlink 31053

operational
NORAD ID: 58549 Int'l Des: 2023-192 Owner: SPXS Country: US Constellation: starlink
LEOCIRCULAR

About Starlink 31053

Description loading...

Live Position

Loading 3D Globe...

Upcoming Passes

Altitude History

Altitude vs Time

uPlot chart will show altitude changes over time

Two-Line Element Set

1 58549U 23192U 25304.24999680 -.00002139 00000-0 -60086-4 0 9990
2 58549 53.1623 304.2491 0001465 94.6567 265.4601 15.30205084106165
Epoch: Oct 31, 2025 • Age: 10 hours

Current Status

Altitude 475.2 km
Velocity 7.63 km/s
Sub-Earth Point 7.28°N, 165.62°W
Launch Date Dec 8, 2023
Age 1.8 years
Type internet

Technical Details

Classification Payload
Mass 730.00 kg
Dry Mass 700.00 kg
Total Mass 730.00 kg
Length 0.30 m
Diameter 4.10 m
Span 29.00 m
Shape Box + pan
Manufacturer SPXS
Bus Type Starlink V2M
Phase Status In Orbit
Owner/State SPXS/US

Large Constellations

Loading constellations...